Simultaneous Nadir Overpasses (SNOs) Predictions

Prediction of SNOs between GOES-16 and LANDSAT-8 Satellite Orbit:

Table of predicted SNOs for the next 14.0 days since TLE Epoch: 6/6/2025
Index Date Time (GOES-16) GOES-16 Lat,Lon LANDSAT-8 Lat,Lon Distance(km) Time Diff (sec)
1 06/07/2025 05:27:30 -0.03,-105.14 -0.77,-108.47 379.95 80
2 06/09/2025 05:12:46 -0.03,-106.19 0.10,-105.57 70.08 80
3 06/09/2025 17:36:42 0.03,-106.50 0.94,-110.74 482.99 80
4 06/11/2025 17:24:36 0.03,-107.55 0.11,-107.83 33.34 80
5 06/13/2025 17:09:51 0.02,-108.59 -0.78,-104.94 416.24 80
6 06/14/2025 05:33:56 -0.02,-108.83 -0.30,-110.13 148.42 80
7 06/16/2025 05:19:10 -0.01,-109.88 0.55,-107.23 301.11 80
8 06/16/2025 17:43:07 0.01,-110.18 0.48,-112.40 252.07 80
9 06/18/2025 17:28:21 0.01,-111.23 -0.38,-109.49 197.77 80
10 06/19/2025 05:52:26 -0.01,-111.47 -0.70,-114.69 366.61 80
